Terug naar catalogus

TIANHUI 2-02A

ActiefWetenschapSSO
NORAD 49071·PAYLOAD·🇨🇳 China

Gelanceerd Aug 18, 2021 vanaf Taiyuan Satellite Launch Center

Loading…

Volgende Passages (komende 24 uur)

TLE

VersSource: Space-Track

Epoch: Sep 14, 2026, 06:12 UTC

1 49071U 21074A   26257.25866817  .00001275  00000-0  68415-4 0  9993
2 49071  97.4859 259.3326 0001842 107.8426 252.3008 15.16753088280776

Volg TIANHUI 2-02A in realtime met AllMySat

Download on the App Store